Content
SEND FEEDBACK

Daily
Averages
Monthly
Summary
United States of America

MANGILAO, GUAM


Home > North America > United States > Guam
Elevation: 60 feet     Latitude: 13 27N     Longitude: 144 49E

WEATHER
 
SELECT A DAY
Number of Records: 342,273;   Date Range: 1/1/95 - 8/30/14
 
SHARE

PRINT THIS DATA

[ ← Previous Day ]
WEATHER ALMANAC - OCTOBER 18, 2013
[ Next Day → ]
[ °C ]   °F
Weather ElementAverageHighLow
Temperature76.4 °F81 °F (1:58 pm)71.6 °F (12:41 am)
Dewpoint74.9 °F77.5 °F (10:58 pm)68 °F (9:08 pm)
Humidity95.1 %100 % (12:46 am)83 % (2:58 pm)
Barometer29.65 in29.71 in (9:08 am)29.56 in (2:58 pm)
Wind Speed24.9 mph36.8 mph (7:18 am)
Wind Gust46 mph (3:13 am)
Weather ElementAverage
Visibility5.4 mi
Wind DirectionSSE (155 °)

Weather ElementTotal
Precipitation5.44 in
Cooling Degree Days11.3 (Base 65)
Growing Degree Days26.3 (Base 50)
Averaged from 180 records on October 18, 2013
WEATHER CONDITIONS BREAKOUT
WIND DIRECTION BREAKOUT
WEATHER BY HOUR - OCTOBER 18, 2013
[ °C ]   °F
Local TimeTemperatureDewpointHumidityBarometerVisibilityWind DirectionWind SpeedGust SpeedPrecipitationEventsConditions
12:33 AM73.4 °F71.6 °F94 %29.67 in10.0 miEast (100°)26.5 mph36.8 mphOvercast
12:36 AM73.4 °F69.8 °F88 %29.67 in10.0 miESE (110°)27.6 mph40.3 mphLight Drizzle
12:41 AM71.6 °F69.8 °F94 %29.67 in6.0 miESE (110°)28.8 mph42.6 mphRainLight Rain
12:46 AM71.6 °F71.6 °F100 %29.66 in4.0 miESE (120°)31.1 mph42.6 mphRainRain
12:51 AM73.4 °F71.6 °F94 %29.67 in4.0 miESE (110°)27.6 mph42.6 mphRainLight Rain
12:56 AM73.4 °F71.6 °F94 %29.67 in6.0 miESE (110°)24.2 mph40.3 mphRainLight Rain
12:58 AM73.2 °F72.0 °F96 %29.64 in6.0 miESE (110°)24.2 mph40.3 mph0.02 inRainLight Rain
1:07 AM73.4 °F73.4 °F100 %29.66 in10.0 miESE (110°)27.6 mph33.4 mphOvercast
1:10 AM73.4 °F73.4 °F100 %29.66 in9.0 miESE (110°)33.4 mph41.4 mphRainLight Rain
1:30 AM73.4 °F73.4 °F100 %29.65 in6.0 miEast (100°)23.0 mph31.1 mphRainLight Rain
1:37 AM75.2 °F73.4 °F94 %29.66 in10.0 miESE (110°)25.3 mph42.6 mphOvercast
1:42 AM75.2 °F73.4 °F94 %29.65 in10.0 miESE (110°)28.8 mph42.6 mphRainLight Rain
1:47 AM75.2 °F73.4 °F94 %29.66 in10.0 miESE (110°)27.6 mph40.3 mphRainLight Rain
1:56 AM75.2 °F73.4 °F94 %29.65 in10.0 miESE (120°)29.9 mph40.3 mphMostly Cloudy
1:58 AM75.2 °F73.4 °F94 %29.62 in10.0 miESE (120°)31.1 mph40.3 mph0.03 inMostly Cloudy
2:08 AM75.2 °F73.4 °F94 %29.65 in9.0 miESE (110°)26.5 mph40.3 mphLight Drizzle
2:13 AM75.2 °F73.4 °F94 %29.65 in6.0 miESE (110°)20.7 mph39.1 mphRainLight Rain
2:18 AM75.2 °F75.2 °F100 %29.65 in5.0 miESE (110°)25.3 mph39.1 mphRainLight Rain
2:33 AM77.0 °F75.2 °F94 %29.63 in4.0 miESE (120°)24.2 mph35.7 mphRainRain
2:48 AM75.2 °F75.2 °F100 %29.62 in4.0 miESE (110°)26.5 mph41.4 mphRainLight Rain
2:58 AM76.5 °F75.6 °F97 %29.58 in5.0 miESE (120°)31.1 mph43.7 mph0.05 inRainLight Rain
3:13 AM75.2 °F75.2 °F100 %29.61 in9.0 miSE (130°)29.9 mph46.0 mphRainLight Rain
3:18 AM75.2 °F73.4 °F94 %29.61 in8.0 miESE (120°)28.8 mph46.0 mphRainLight Rain
3:23 AM75.2 °F75.2 °F100 %29.62 in7.0 miSE (130°)31.1 mph38.0 mphRainLight Rain
3:28 AM75.2 °F73.4 °F94 %29.62 in4.0 miESE (120°)23.0 mph40.3 mphRainRain
3:33 AM75.2 °F75.2 °F100 %29.63 in4.0 miESE (120°)25.3 mph40.3 mphRainLight Rain
3:38 AM75.2 °F75.2 °F100 %29.63 in6.0 miESE (120°)23.0 mph36.8 mphRainLight Rain
3:48 AM75.2 °F75.2 °F100 %29.62 in1.2 miESE (110°)16.1 mph32.2 mphRainHeavy Rain
3:53 AM75.2 °F75.2 °F100 %29.61 in1.0 miEast (100°)20.7 mph32.2 mphRainHeavy Rain
3:58 AM75.2 °F75.2 °F100 %29.58 in2.0 miESE (120°)28.8 mph41.4 mph0.27 inRainLight Rain
4:03 AM75.2 °F75.2 °F100 %29.61 in9.0 miESE (120°)25.3 mph41.4 mphRainLight Rain
4:08 AM77.0 °F75.2 °F94 %29.61 in10.0 miSE (130°)28.8 mph34.5 mphOvercast
4:13 AM77.0 °F75.2 °F94 %29.62 in10.0 miESE (120°)24.2 mph36.8 mphOvercast
4:58 AM77.0 °F75.6 °F95 %29.58 in10.0 miESE (110°)23.0 mph33.4 mph0.01 inOvercast
5:03 AM77.0 °F75.2 °F94 %29.61 in9.0 miESE (120°)23.0 mph34.5 mphOvercast
5:08 AM77.0 °F75.2 °F94 %29.61 in3.0 miESE (110°)20.7 mph34.5 mphOvercast
5:13 AM77.0 °F75.2 °F94 %29.60 in2.5 miEast (100°)25.3 mph39.1 mphOvercast
5:23 AM77.0 °F75.2 °F94 %29.62 in1.0 miESE (120°)28.8 mph44.9 mphOvercast
5:25 AM77.0 °F75.2 °F94 %29.62 in0.8 miEast (100°)23.0 mph44.9 mphRainHeavy Rain
5:30 AM77.0 °F75.2 °F94 %29.63 in0.5 miSE (140°)33.4 mph40.3 mphFog-RainHeavy Rain
5:33 AM77.0 °F75.2 °F94 %29.63 in0.5 miSSE (150°)21.9 mph40.3 mphFog-RainHeavy Rain
5:38 AM75.2 °F75.2 °F100 %29.62 in0.5 miSSE (150°)20.7 mph40.3 mphFog-RainHeavy Rain
5:43 AM75.2 °F75.2 °F100 %29.63 in0.5 miSE (140°)25.3 mph40.3 mphFog-RainHeavy Rain
5:48 AM75.2 °F75.2 °F100 %29.62 in0.8 miSSE (160°)32.2 mph40.3 mphRainLight Rain
5:53 AM75.2 °F75.2 °F100 %29.62 in1.2 miSSE (160°)31.1 mph39.1 mphRainHeavy Rain
5:58 AM77.0 °F75.2 °F94 %29.60 in1.8 miSSE (150°)31.1 mph39.1 mph1.35 inRainHeavy Rain
6:03 AM77.0 °F75.2 °F94 %29.63 in2.5 miSSE (150°)29.9 mph42.6 mphRainLight Rain
6:08 AM75.2 °F75.2 °F100 %29.64 in4.0 miSSE (150°)27.6 mph42.6 mphRainLight Rain
6:18 AM75.2 °F75.2 °F100 %29.64 in2.0 miSE (140°)28.8 mph38.0 mphRainHeavy Rain
6:28 AM73.4 °F73.4 °F100 %29.64 in3.0 miSSE (150°)26.5 mph39.1 mphRainLight Rain
6:33 AM73.4 °F73.4 °F100 %29.65 in4.0 miSE (140°)25.3 mph35.7 mphRainLight Rain
6:38 AM75.2 °F73.4 °F94 %29.65 in4.0 miSE (140°)31.1 mph39.1 mphRainLight Rain
6:43 AM75.2 °F73.4 °F94 %29.66 in3.0 miSSE (150°)26.5 mph39.1 mphRainRain
6:48 AM75.2 °F73.4 °F94 %29.66 in2.0 miSE (140°)25.3 mph39.1 mphRainRain
6:53 AM73.4 °F73.4 °F100 %29.65 in1.8 miSSE (150°)26.5 mph34.5 mphRainRain
6:58 AM74.3 °F73.8 °F98 %29.64 in1.5 miSSE (150°)24.2 mph34.5 mph0.21 inRainRain
7:03 AM75.2 °F73.4 °F94 %29.67 in1.0 miSE (140°)24.2 mph34.5 mphRainHeavy Rain
7:08 AM75.2 °F75.2 °F100 %29.67 in0.8 miSE (140°)23.0 mph34.5 mphRainHeavy Rain
7:13 AM75.2 °F75.2 °F100 %29.66 in0.5 miSE (140°)28.8 mph38.0 mphFog-RainHeavy Rain
7:18 AM75.2 °F75.2 °F100 %29.66 in0.2 miESE (120°)36.8 mph46.0 mphFog-RainHeavy Rain
7:23 AM75.2 °F75.2 °F100 %29.66 in0.5 miSE (140°)31.1 mph46.0 mphFog-RainRain
7:28 AM75.2 °F73.4 °F94 %29.67 in1.8 miSE (140°)27.6 mph46.0 mphRainRain
7:33 AM75.2 °F73.4 °F94 %29.67 in2.5 miSSE (150°)24.2 mph40.3 mphRainRain
7:38 AM75.2 °F73.4 °F94 %29.67 in3.0 miSE (140°)23.0 mph34.5 mphRainLight Rain
7:43 AM75.2 °F73.4 °F94 %29.67 in5.0 miSSE (150°)23.0 mph34.5 mphRainLight Rain
7:58 AM74.5 °F73.9 °F98 %29.65 in7.0 miSE (130°)28.8 mph38.0 mph0.59 inRainLight Rain
8:08 AM75.2 °F73.4 °F94 %29.68 in3.0 miSE (130°)34.5 mph39.1 mphRainRain
8:13 AM75.2 °F75.2 °F100 %29.68 in2.5 miSE (130°)29.9 mph39.1 mphRainLight Rain
8:23 AM75.2 °F75.2 °F100 %29.69 in1.8 miSSE (150°)32.2 mph39.1 mphRainRain
8:33 AM75.2 °F73.4 °F94 %29.70 in2.5 miSSE (150°)32.2 mph44.9 mphRainLight Rain
8:38 AM75.2 °F73.4 °F94 %29.70 in4.0 miSE (140°)27.6 mph40.3 mphRainLight Rain
8:43 AM75.2 °F73.4 °F94 %29.70 in4.0 miSE (140°)25.3 mph40.3 mphRainLight Rain
8:58 AM75.6 °F74.7 °F97 %29.67 in6.0 miSSE (150°)23.0 mph0.14 inRainLight Rain
9:08 AM75.2 °F73.4 °F94 %29.71 in10.0 miSSE (150°)20.7 mph31.1 mphRainLight Rain
9:09 AM75.2 °F73.4 °F94 %29.71 in10.0 miSSE (150°)19.6 mph31.1 mphScattered Clouds
9:29 AM75.2 °F73.4 °F94 %29.71 in10.0 miSE (140°)23.0 mph33.4 mphMostly Cloudy
9:39 AM75.2 °F73.4 °F94 %29.71 in10.0 miSE (130°)25.3 mph32.2 mphScattered Clouds
9:44 AM77.0 °F73.4 °F89 %29.70 in10.0 miSE (130°)25.3 mph32.2 mphMostly Cloudy
9:49 AM77.0 °F75.2 °F94 %29.70 in10.0 miSE (130°)24.2 mph31.1 mphMostly Cloudy
9:54 AM77.0 °F75.2 °F94 %29.69 in10.0 miSE (130°)24.2 mph28.8 mphMostly Cloudy
9:56 AM77.0 °F75.2 °F94 %29.69 in10.0 miSE (130°)20.7 mph28.8 mphRainLight Rain
9:58 AM77.0 °F75.2 °F94 %29.66 in10.0 miSE (130°)19.6 mph28.8 mph0.01 inRainLight Rain
10:08 AM77.0 °F77.0 °F100 %29.68 in7.0 miESE (120°)24.2 mph29.9 mphRainLight Rain
10:13 AM77.0 °F77.0 °F100 %29.68 in2.0 miESE (120°)20.7 mph29.9 mphRainLight Rain
10:18 AM77.0 °F77.0 °F100 %29.66 in1.8 miESE (120°)26.5 mph31.1 mphRainLight Rain
10:23 AM77.0 °F77.0 °F100 %29.67 in2.0 miSE (140°)25.3 mph41.4 mphRainRain
10:28 AM77.0 °F77.0 °F100 %29.67 in0.8 miSE (140°)21.9 mph41.4 mphRainHeavy Rain
10:33 AM78.8 °F77.0 °F94 %29.66 in0.8 miSE (130°)27.6 mph36.8 mphRainHeavy Rain
10:38 AM78.8 °F77.0 °F94 %29.66 in1.0 miSE (140°)29.9 mph39.1 mphRainLight Rain
10:43 AM77.0 °F75.2 °F94 %29.67 in1.8 miSE (130°)23.0 mph39.1 mphRainLight Rain
10:48 AM78.8 °F77.0 °F94 %29.66 in3.0 miSE (130°)25.3 mph34.5 mphRainLight Rain
10:53 AM78.8 °F77.0 °F94 %29.68 in1.0 miSSE (160°)25.3 mph40.3 mphRainHeavy Rain
10:54 AM78.8 °F77.0 °F94 %29.68 in0.8 miSouth (170°)24.2 mph40.3 mphRainHeavy Rain
10:58 AM78.8 °F77.0 °F94 %29.64 in0.5 miSSE (160°)25.3 mph40.3 mph0.46 inFog-RainHeavy Rain
11:03 AM78.8 °F77.0 °F94 %29.66 in0.5 miSSE (150°)32.2 mph41.4 mphFog-RainHeavy Rain
11:08 AM77.0 °F77.0 °F100 %29.66 in0.2 miSSE (160°)31.1 mph42.6 mphFog-RainHeavy Rain
11:18 AM77.0 °F77.0 °F100 %29.65 in0.2 miSSE (150°)15.0 mph31.1 mphFog-RainHeavy Rain
11:23 AM77.0 °F77.0 °F100 %29.65 in0.8 miSouth (170°)20.7 mph32.2 mphRainLight Rain
11:28 AM77.0 °F77.0 °F100 %29.66 in2.0 miSSE (160°)20.7 mph32.2 mphRainLight Rain
11:33 AM77.0 °F77.0 °F100 %29.65 in3.0 miSSE (160°)25.3 mph36.8 mphRainLight Rain
11:38 AM77.0 °F77.0 °F100 %29.65 in2.5 miSSE (150°)23.0 mph36.8 mphRainLight Rain
11:48 AM78.8 °F77.0 °F94 %29.64 in1.0 miSSE (150°)27.6 mph38.0 mphRainHeavy Rain
11:53 AM78.8 °F77.0 °F94 %29.64 in1.2 miSSE (150°)28.8 mph43.7 mphRainLight Rain
11:58 AM78.8 °F77.0 °F94 %29.60 in2.0 miSSE (150°)32.2 mph43.7 mph0.83 inRainLight Rain
12:03 PM78.8 °F77.0 °F94 %29.63 in2.5 miSSE (160°)32.2 mph46.0 mphRainLight Rain
12:08 PM78.8 °F75.2 °F89 %29.64 in9.0 miSSE (160°)25.3 mph46.0 mphRainLight Rain
12:09 PM78.8 °F75.2 °F89 %29.64 in10.0 miSSE (160°)28.8 mph46.0 mphMostly Cloudy
12:28 PM80.6 °F77.0 °F89 %29.62 in5.0 miSE (140°)31.1 mph38.0 mphRainLight Rain
12:33 PM78.8 °F77.0 °F94 %29.62 in4.0 miSSE (160°)27.6 mph38.0 mphRainLight Rain
12:44 PM80.6 °F75.2 °F84 %29.61 in10.0 miSSE (160°)33.4 mph44.9 mphMostly Cloudy
12:58 PM80.8 °F76.5 °F87 %29.58 in9.0 miSSE (160°)32.2 mph38.0 mph0.04 inMostly Cloudy
12:59 PM80.6 °F77.0 °F89 %29.62 in9.0 miSSE (160°)29.9 mph38.0 mphRainLight Rain
1:16 PM80.6 °F75.2 °F84 %29.61 in10.0 miSSE (160°)33.4 mph44.9 mphScattered Clouds
1:58 PM81.0 °F75.6 °F84 %29.58 in10.0 miSSE (160°)25.3 mph38.0 mph0.00 inScattered Clouds
2:58 PM79.5 °F73.9 °F83 %29.56 in10.0 miSSE (160°)27.6 mph38.0 mphPartly Cloudy
3:35 PM78.8 °F73.4 °F83 %29.61 in9.0 miSouth (170°)25.3 mph33.4 mphRainLight Rain
3:58 PM78.4 °F76.3 °F93 %29.57 in5.0 miSSE (160°)20.7 mph27.6 mph0.01 inRainLight Rain
4:02 PM78.8 °F77.0 °F94 %29.60 in10.0 miSSE (150°)20.7 mph27.6 mphMostly Cloudy
4:09 PM80.6 °F77.0 °F89 %29.60 in6.0 miSSE (160°)20.7 mph29.9 mphRainLight Rain
4:29 PM78.8 °F77.0 °F94 %29.60 in9.0 miSSE (160°)23.0 mph28.8 mphRainLight Rain
4:32 PM78.8 °F77.0 °F94 %29.60 in10.0 miSouth (170°)23.0 mph32.2 mphMostly Cloudy
4:37 PM80.6 °F77.0 °F89 %29.62 in2.5 miSouth (170°)23.0 mph32.2 mphMostly Cloudy
4:38 PM80.6 °F77.0 °F89 %29.62 in1.8 miSouth (170°)26.5 mph34.5 mphRainRain
4:43 PM78.8 °F77.0 °F94 %29.62 in1.0 miSouth (170°)25.3 mph34.5 mphRainLight Rain
4:48 PM78.8 °F77.0 °F94 %29.61 in1.2 miSouth (190°)27.6 mph41.4 mphRainLight Rain
4:53 PM77.0 °F77.0 °F100 %29.62 in6.0 miSouth (190°)25.3 mph40.3 mphRainLight Rain
4:54 PM77.0 °F77.0 °F100 %29.61 in6.0 miSouth (190°)24.2 mph40.3 mphOvercast
4:58 PM77.0 °F77.0 °F100 %29.58 in6.0 miSouth (180°)23.0 mph34.5 mph0.13 inOvercast
5:07 PM77.0 °F77.0 °F100 %29.62 in4.0 miSouth (190°)23.0 mph32.2 mphRainHeavy Rain
5:12 PM77.0 °F77.0 °F100 %29.62 in1.8 miSouth (180°)16.1 mph32.2 mphRainRain
5:17 PM77.0 °F77.0 °F100 %29.62 in1.2 miSouth (180°)28.8 mph43.7 mphRainRain
5:22 PM77.0 °F77.0 °F100 %29.63 in0.8 miSSW (200°)20.7 mph46.0 mphRainLight Rain
5:27 PM77.0 °F77.0 °F100 %29.63 in1.2 miSSW (200°)26.5 mph46.0 mphRainLight Rain
5:32 PM77.0 °F75.2 °F94 %29.63 in7.0 miSSW (200°)23.0 mph39.1 mphRainLight Rain
5:35 PM77.0 °F75.2 °F94 %29.63 in10.0 miSSW (200°)23.0 mph39.1 mphMostly Cloudy
5:38 PM77.0 °F75.2 °F94 %29.63 in7.0 miSSW (200°)27.6 mph34.5 mphRainLight Rain
5:43 PM77.0 °F75.2 °F94 %29.64 in2.5 miSouth (190°)18.4 mph34.5 mphRainLight Rain
5:53 PM77.0 °F75.2 °F94 %29.63 in0.8 miSSW (200°)16.1 mph27.6 mphRainHeavy Rain
5:58 PM75.2 °F75.2 °F100 %29.60 in0.5 miSouth (190°)15.0 mph27.6 mph0.43 inFog-RainHeavy Rain
6:03 PM77.0 °F75.2 °F94 %29.63 in0.8 miSSW (200°)16.1 mph34.5 mphRainLight Rain
6:08 PM77.0 °F75.2 °F94 %29.63 in3.0 miSouth (180°)27.6 mph39.1 mphRainLight Rain
6:13 PM77.0 °F75.2 °F94 %29.63 in9.0 miSouth (190°)26.5 mph39.1 mphRainLight Rain
6:18 PM77.0 °F75.2 °F94 %29.65 in7.0 miSSW (200°)26.5 mph41.4 mphRainHeavy Rain
6:32 PM77.0 °F75.2 °F94 %29.65 in0.5 miSSW (210°)20.7 mph38.0 mphFog-RainHeavy Rain
6:42 PM75.2 °F75.2 °F100 %29.65 in0.8 miSouth (190°)20.7 mph34.5 mphRainHeavy Rain
6:47 PM75.2 °F73.4 °F94 %29.65 in0.5 miSSW (200°)19.6 mph28.8 mphFog-RainLight Rain
6:52 PM75.2 °F73.4 °F94 %29.65 in0.8 miSSW (200°)27.6 mph34.5 mphRainLight Rain
6:57 PM75.2 °F75.2 °F100 %29.64 in2.0 miSouth (190°)23.0 mph34.5 mphRainLight Rain
6:58 PM75.2 °F75.2 °F100 %29.61 in3.0 miSSW (200°)21.9 mph34.5 mph0.82 inRainLight Rain
7:13 PM77.0 °F75.2 °F94 %29.65 in6.0 miSSW (200°)26.5 mph34.5 mphRainLight Rain
7:18 PM75.2 °F75.2 °F100 %29.65 in6.0 miSouth (190°)20.7 mph34.5 mphRainLight Rain
7:21 PM75.2 °F75.2 °F100 %29.66 in7.0 miSouth (190°)20.7 mph32.2 mphMostly Cloudy
7:41 PM75.2 °F73.4 °F94 %29.66 in9.0 miSSW (200°)17.3 mph27.6 mphMostly Cloudy
7:51 PM77.0 °F75.2 °F94 %29.65 in10.0 miSSW (200°)20.7 mph27.6 mphOvercast
7:56 PM75.2 °F73.4 °F94 %29.66 in10.0 miSSW (200°)19.6 mph27.6 mphMostly Cloudy
7:58 PM76.1 °F74.3 °F94 %29.63 in10.0 miSSW (200°)20.7 mph27.6 mph0.01 inMostly Cloudy
8:08 PM78.8 °F75.2 °F89 %29.67 in10.0 miSSW (200°)20.7 mph28.8 mphScattered Clouds
8:13 PM77.0 °F75.2 °F94 %29.67 in10.0 miSouth (190°)19.6 mph26.5 mphMostly Cloudy
8:28 PM73.4 °F71.6 °F94 %29.67 in10.0 miSouth (190°)21.9 mph29.9 mphMostly Cloudy
8:33 PM75.2 °F75.2 °F100 %29.68 in10.0 miSSW (200°)25.3 mph33.4 mphMostly Cloudy
8:45 PM77.0 °F75.2 °F94 %29.68 in10.0 miSouth (190°)23.0 mph35.7 mphLight Drizzle
8:53 PM77.0 °F73.4 °F89 %29.68 in9.0 miSSW (200°)21.9 mph34.5 mphMostly Cloudy
8:58 PM77.2 °F74.5 °F91 %29.65 in10.0 miSouth (190°)24.2 mph34.5 mph0.00 inMostly Cloudy
9:03 PM73.4 °F69.8 °F88 %29.68 in10.0 miSSW (200°)19.6 mph31.1 mphMostly Cloudy
9:08 PM71.6 °F68.0 °F88 %29.68 in10.0 miSouth (190°)23.0 mph31.1 mphMostly Cloudy
9:13 PM75.2 °F73.4 °F94 %29.68 in10.0 miSouth (190°)21.9 mph31.1 mphMostly Cloudy
9:23 PM77.0 °F75.2 °F94 %29.68 in10.0 miSSW (200°)16.1 mph29.9 mphScattered Clouds
9:33 PM75.2 °F73.4 °F94 %29.68 in10.0 miSSW (200°)18.4 mph25.3 mphMostly Cloudy
9:43 PM75.2 °F73.4 °F94 %29.68 in10.0 miSSW (200°)17.3 mph28.8 mphMostly Cloudy
9:48 PM77.0 °F75.2 °F94 %29.68 in10.0 miSSW (200°)20.7 mph28.8 mphScattered Clouds
9:53 PM75.2 °F73.4 °F94 %29.67 in10.0 miSSW (200°)20.7 mph29.9 mphMostly Cloudy
9:58 PM74.7 °F72.9 °F94 %29.64 in10.0 miSSW (200°)18.4 mph29.9 mphScattered Clouds
10:08 PM77.0 °F73.4 °F89 %29.67 in10.0 miSouth (190°)21.9 mph29.9 mphMostly Cloudy
10:09 PM77.0 °F73.4 °F89 %29.68 in10.0 miSouth (190°)21.9 mph29.9 mphRainLight Rain
10:19 PM77.0 °F75.2 °F94 %29.68 in7.0 miSSW (200°)24.2 mph34.5 mphRainLight Rain
10:21 PM78.8 °F75.2 °F89 %29.68 in10.0 miSSW (200°)21.9 mph34.5 mphMostly Cloudy
10:58 PM79.3 °F77.5 °F94 %29.64 in10.0 miSouth (190°)26.5 mph34.5 mph0.03 inOvercast
11:13 PM78.8 °F77.0 °F94 %29.67 in10.0 miSouth (190°)23.0 mph32.2 mphOvercast
11:43 PM78.8 °F77.0 °F94 %29.67 in10.0 miSSW (200°)24.2 mph32.2 mphMostly Cloudy
11:58 PM79.5 °F77.0 °F92 %29.64 in10.0 miSSW (200°)23.0 mph33.4 mphMostly Cloudy
Hourly data recorded from PGUA, located miles away from Mangilao, Guam







STORIES FROM OUR PARTNERS